Wind_Speed
29 29 30 31 31 31 31 30 30 31 31 31 31 30 30 29 29 30 30 30 29 29 30 31 31 31 31 31 31 32 33 34 35 36 36 37 38 38 39 39 39 39 40
28 29 30 30 30 29 29 30 30 30 30 30 30 29 29 29 29 29 30 29 29 29 29 30 30 30 30 30 31 32 32 33 34 35 35 36 37 37 38 38 38 38 38
27 28 28 29 29 29 29 29 29 28 28 28 29 29 28 28 29 29 29 29 29 29 28 28 28 28 29 30 31 31 31 31 32 33 33 34 35 35 36 36 36 35 35
26 26 26 26 26 26 26 27 26 26 26 26 27 27 27 27 27 27 27 27 28 27 27 26 26 26 28 29 29 30 30 30 31 31 32 32 32 33 33 33 33 33 32
25 24 24 24 24 24 24 24 24 23 23 24 24 24 24 24 24 24 24 23 24 24 24 24 24 25 27 27 27 27 27 28 29 29 30 30 30 30 30 30 29 29 28
21 21 21 21 20 20 21 21 21 20 20 20 20 20 21 20 21 21 21 22 21 21 21 22 23 24 24 24 24 24 24 25 26 26 26 26 27 27 27 26 26 24 24
18 17 17 17 17 17 18 18 18 17 17 17 17 17 17 17 18 18 17 17 18 19 19 20 20 20 19 20 21 22 23 24 25 24 24 24 24 23 23 22 22 21 21
16 15 15 15 15 15 15 15 15 15 15 14 14 15 14 15 15 14 14 15 16 17 17 17 18 18 18 19 20 21 22 22 22 22 22 22 21 20 20 19 18 18 18
13 12 12 12 12 11 11 12 12 13 13 13 14 13 13 13 13 14 13 14 15 15 15 16 16 17 18 18 18 19 19 19 19 19 19 18 17 17 16 15 15 15 14
11 10 10 9 8 8 8 9 10 11 11 11 11 12 11 11 12 13 13 14 13 13 14 14 15 15 16 16 16 16 16 16 16 16 15 14 14 13 12 11 11 11 10
8 8 8 7 6 6 6 7 7 7 8 9 10 10 11 11 11 12 12 12 12 12 12 12 12 13 13 14 14 13 13 13 12 12 11 11 10 9 9 8 8 8 8
6 5 5 5 5 5 4 4 5 5 6 7 7 7 8 9 9 10 10 10 10 10 10 10 10 10 10 10 10 10 10 10 9 9 8 8 7 7 6 6 6 6 6
4 3 4 4 4 4 4 3 3 3 3 4 4 4 5 6 6 7 7 8 8 8 8 8 8 8 9 9 9 8 8 8 8 7 6 6 5 5 5 5 5 5 5
3 2 2 2 2 2 2 2 2 2 3 3 3 3 4 5 5 6 6 6 6 6 7 7 7 8 8 7 7 7 7 6 6 5 5 5 5 4 4 4 4 4 4
3 2 1 1 1 1 2 2 2 2 3 4 4 4 4 5 5 5 5 5 5 5 5 5 6 6 6 6 6 6 6 5 4 4 4 3 3 3 3 3 3 3 3
5 5 4 4 4 4 3 3 2 2 2 3 3 4 4 3 2 2 3 3 3 3 3 4 4 4 4 5 5 4 4 3 2 2 2 2 2 1 1 2 2 3 3
7 7 6 6 6 6 6 6 5 5 4 5 5 4 4 4 3 3 2 2 2 2 3 3 3 4 4 4 4 3 2 2 2 2 1 1 1 1 1 2 2 2 3
9 9 9 8 8 9 8 8 8 7 7 6 6 6 6 6 5 5 4 4 3 3 3 4 4 5 4 4 3 3 2 2 2 2 1 0 1 1 1 2 2 3 4
11 11 12 11 11 11 11 11 10 10 9 9 8 8 8 8 7 7 7 6 6 6 6 5 5 5 5 5 4 4 3 2 2 1 1 1 1 1 1 2 2 3 4
13 13 13 13 13 13 13 13 13 12 12 12 11 11 10 10 9 9 9 8 8 8 7 6 6 6 6 5 5 5 4 4 3 2 2 1 1 1 2 2 3 4 5
14 14 14 14 14 14 14 14 14 14 13 13 13 13 12 12 11 11 10 10 9 8 8 7 7 7 7 6 6 6 6 5 4 4 3 3 2 2 2 3 3 4 5
14 14 14 14 14 14 15 15 15 15 15 15 14 14 13 12 12 12 11 11 10 9 9 9 8 8 8 8 7 7 6 6 5 4 4 3 3 3 3 3 4 5 6
14 14 14 14 14 15 15 16 16 16 16 16 15 14 14 13 13 12 12 11 10 10 10 10 9 9 9 8 8 8 7 7 6 5 5 4 4 4 4 4 5 5 6
15 14 14 14 14 15 15 15 15 15 15 15 15 15 14 14 14 13 13 12 12 11 11 11 10 10 9 9 8 8 8 7 7 6 6 5 5 4 5 5 6 7 8
14 14 14 14 14 14 14 14 14 14 14 14 15 15 15 14 14 13 13 12 12 12 12 11 11 10 10 9 9 9 8 8 7 7 6 6 6 6 7 7 8 9 10
13 13 14 14 14 14 14 14 14 14 14 14 14 14 14 13 13 13 12 12 12 12 12 12 11 11 10 10 9 9 8 8 8 7 7 7 8 8 9 10 10 11 12
Wind_Direction
280 279 278 277 275 274 273 272 271 270 269 268 269 270 270 268 268 268 268 268 268 267 266 267 267 267 267 268 269 271 272 273 273 274 275 276 276 277 278 279 281 282 283
281 279 279 278 275 275 275 274 274 273 271 270 270 271 270 269 270 269 267 267 267 266 265 265 265 265 266 267 269 271 272 273 275 275 275 276 277 278 279 280 281 282 282
282 281 280 279 277 276 275 275 275 274 271 269 268 269 269 268 267 267 265 266 265 264 264 265 265 266 267 269 271 272 273 275 277 277 277 277 278 278 280 280 281 281 283
284 282 281 280 278 276 275 275 273 272 269 267 266 267 267 267 266 265 264 265 264 263 264 265 265 267 270 271 272 273 275 277 279 279 279 279 279 279 280 281 281 282 283
286 282 281 279 278 277 277 275 273 272 269 266 264 266 266 265 266 265 264 264 263 262 263 264 265 268 271 272 273 274 276 278 279 280 280 280 280 280 281 282 282 281 281
286 283 281 279 279 278 276 275 273 274 271 265 261 263 265 265 266 265 265 263 261 262 264 266 268 271 272 273 274 275 277 278 279 280 281 281 282 282 283 282 280 280 280
285 284 283 281 278 277 274 274 274 274 268 262 260 260 261 261 263 263 262 263 262 263 265 267 270 273 275 276 276 276 277 278 280 281 281 281 282 282 281 280 280 279 281
286 285 285 283 280 278 273 271 269 268 269 265 262 261 261 262 263 262 265 266 265 267 269 272 275 276 276 277 277 278 280 281 282 281 281 281 281 279 280 281 280 280 280
287 285 284 285 282 279 275 272 269 266 266 264 262 263 263 262 266 267 268 271 270 269 271 274 276 277 278 279 280 282 283 284 284 283 283 282 280 279 278 279 279 278 278
283 283 286 286 282 278 277 272 270 268 265 263 262 264 262 264 266 265 266 268 268 270 271 273 276 279 280 282 283 285 286 286 285 283 283 280 277 277 276 278 278 275 277
284 286 288 285 281 278 274 272 273 272 271 268 264 263 262 265 268 266 267 267 269 272 273 275 280 282 283 284 285 286 287 289 288 286 283 279 278 278 278 277 273 273 275
288 286 288 288 284 280 279 284 284 284 280 272 268 265 263 266 269 268 266 267 270 274 278 281 284 286 286 287 288 290 292 294 292 290 287 281 279 278 277 275 271 271 270
301 296 289 283 277 271 274 282 288 293 290 284 277 270 266 268 271 273 272 274 278 279 280 283 287 288 290 292 294 297 298 296 294 292 289 281 278 277 276 274 272 270 272
324 311 286 281 280 273 284 287 293 307 313 312 303 292 286 284 282 280 278 278 280 281 283 289 293 295 297 298 298 299 298 295 293 292 290 285 280 276 278 281 280 277 283
18 19 10 13 13 356 340 336 321 324 322 318 313 308 302 298 292 284 281 284 286 286 289 295 301 304 305 304 304 302 299 294 293 294 294 294 287 276 270 278 289 295 296
56 56 56 63 58 52 48 43 42 34 6 347 341 336 331 327 322 312 307 305 300 296 306 315 323 328 330 326 319 314 313 311 304 304 300 298 297 286 276 287 294 304 312
64 63 61 61 61 62 62 58 53 48 34 24 20 16 14 15 13 11 9 5 0 353 349 353 359 358 352 349 348 344 341 340 338 323 299 283 276 267 283 297 300 304 312
70 67 65 65 63 62 63 60 56 53 51 47 44 43 43 45 49 50 49 45 46 39 31 28 25 21 18 16 18 23 24 14 5 354 343 311 281 281 304 314 312 313 319
73 72 72 71 70 69 67 63 60 59 58 56 54 54 56 58 61 61 60 59 56 54 50 47 42 36 35 36 33 33 37 38 32 33 23 346 298 294 305 316 320 322 325
76 76 75 74 74 72 68 65 63 62 63 63 62 62 64 65 66 65 63 63 60 57 55 52 46 43 41 39 37 38 39 38 33 27 19 2 330 317 314 314 317 321 326
78 78 77 78 76 74 70 67 64 62 63 65 66 65 65 64 64 64 63 61 59 57 53 48 44 42 39 39 38 37 35 33 33 30 21 8 352 336 324 320 324 329 333
77 77 77 77 75 73 71 69 67 66 65 65 66 64 62 61 61 62 61 60 58 55 53 49 47 43 42 41 39 35 32 30 30 29 24 15 3 350 338 328 327 330 331
77 77 76 76 75 74 73 70 67 65 63 63 62 62 61 60 59 59 58 56 55 53 50 48 47 45 43 40 38 35 32 29 28 24 20 14 3 352 342 335 330 329 328
78 76 75 74 73 72 70 68 66 64 62 60 58 57 58 58 58 57 56 54 52 51 48 46 44 42 40 37 35 33 31 30 29 28 23 16 8 359 347 338 332 328 326
76 75 73 72 70 69 68 67 65 62 61 59 57 55 55 55 54 52 51 49 47 46 44 42 41 39 37 35 33 31 29 27 25 21 17 10 2 353 343 335 329 325 322
76 74 72 70 68 66 66 65 63 61 58 56 54 52 51 50 49 48 46 45 43 41 39 36 34 32 30 27 25 23 22 20 17 12 5 356 348 341 336 330 326 322 320
Height
5755 5753 5752 5752 5751 5751 5751 5750 5750 5750 5750 5751 5751 5752 5752 5752 5753 5753 5753 5753 5754 5754 5754 5754 5754 5755 5755 5755 5755 5754 5754 5753 5752 5751 5750 5749 5747 5746 5745 5744 5742 5740 5738
5746 5745 5744 5743 5742 5742 5742 5742 5742 5741 5741 5742 5742 5743 5743 5744 5744 5744 5744 5745 5745 5745 5746 5746 5746 5746 5746 5746 5746 5745 5744 5744 5743 5741 5740 5738 5737 5736 5735 5733 5732 5730 5728
5738 5737 5735 5735 5734 5734 5733 5733 5733 5733 5732 5733 5734 5734 5735 5735 5736 5736 5736 5736 5737 5737 5737 5737 5737 5737 5737 5737 5736 5736 5735 5734 5733 5731 5730 5728 5727 5726 5725 5724 5722 5720 5719
5730 5728 5727 5726 5726 5725 5725 5725 5725 5725 5724 5725 5725 5726 5726 5727 5727 5727 5728 5728 5728 5729 5729 5729 5729 5729 5729 5729 5728 5727 5726 5725 5723 5722 5720 5719 5718 5717 5716 5714 5713 5712 5710
5721 5720 5719 5718 5718 5717 5717 5717 5717 5717 5717 5717 5718 5718 5718 5719 5720 5720 5720 5720 5720 5721 5721 5721 5721 5721 5721 5720 5719 5719 5717 5716 5715 5713 5712 5711 5709 5708 5707 5705 5705 5703 5702
5714 5713 5712 5712 5711 5710 5710 5710 5710 5710 5710 5710 5710 5711 5712 5712 5713 5713 5713 5713 5714 5714 5714 5714 5714 5714 5713 5712 5712 5711 5710 5709 5707 5705 5704 5703 5701 5700 5699 5698 5697 5696 5695
5708 5707 5706 5706 5705 5705 5704 5704 5704 5704 5704 5704 5704 5705 5706 5706 5706 5707 5706 5707 5707 5707 5707 5707 5707 5707 5706 5706 5705 5704 5703 5701 5700 5699 5697 5696 5694 5693 5692 5691 5690 5689 5689
5703 5702 5701 5701 5700 5699 5699 5699 5699 5699 5699 5699 5700 5700 5701 5701 5701 5701 5701 5701 5702 5702 5702 5702 5701 5701 5700 5699 5698 5697 5696 5694 5693 5691 5690 5689 5688 5687 5686 5685 5684 5684 5683
5699 5698 5698 5697 5696 5695 5695 5695 5695 5695 5695 5695 5696 5696 5696 5697 5697 5697 5697 5697 5697 5697 5697 5696 5696 5696 5695 5693 5692 5691 5690 5688 5687 5685 5684 5683 5682 5681 5681 5680 5679 5679 5678
5695 5695 5694 5693 5693 5692 5692 5692 5691 5691 5691 5691 5692 5692 5692 5692 5692 5693 5693 5693 5692 5692 5692 5692 5691 5690 5689 5688 5687 5686 5684 5683 5681 5680 5679 5678 5677 5676 5676 5676 5675 5675 5675
5692 5692 5691 5691 5690 5690 5689 5689 5689 5688 5688 5688 5688 5688 5688 5688 5689 5689 5688 5688 5688 5688 5688 5687 5686 5686 5685 5684 5682 5681 5680 5679 5677 5676 5675 5674 5673 5673 5673 5672 5672 5672 5672
5691 5690 5689 5689 5688 5688 5688 5687 5687 5687 5686 5686 5685 5685 5685 5685 5685 5685 5685 5685 5685 5685 5684 5684 5683 5682 5681 5680 5679 5677 5676 5675 5674 5673 5672 5671 5671 5670 5670 5670 5670 5670 5670
5689 5688 5688 5688 5687 5687 5686 5686 5686 5685 5685 5684 5684 5683 5683 5683 5683 5683 5683 5682 5682 5682 5681 5681 5680 5679 5678 5677 5676 5675 5673 5672 5671 5671 5670 5669 5669 5669 5669 5669 5669 5668 5668
5688 5688 5687 5687 5686 5686 5685 5685 5684 5684 5684 5683 5683 5682 5682 5681 5681 5681 5680 5680 5680 5679 5679 5678 5677 5677 5676 5675 5673 5672 5671 5670 5669 5669 5668 5668 5668 5667 5667 5667 5668 5668 5667
5688 5687 5687 5686 5686 5685 5684 5684 5683 5683 5683 5682 5682 5681 5681 5680 5679 5679 5679 5678 5678 5678 5677 5676 5675 5675 5673 5672 5671 5670 5669 5669 5668 5667 5667 5667 5667 5667 5667 5667 5667 5667 5666
5689 5688 5687 5686 5686 5685 5684 5684 5683 5683 5683 5682 5681 5680 5680 5679 5678 5678 5678 5677 5676 5676 5676 5675 5674 5673 5672 5671 5670 5669 5668 5668 5667 5667 5667 5666 5666 5666 5666 5666 5666 5666 5666
5690 5689 5688 5688 5687 5686 5685 5685 5684 5684 5683 5682 5681 5680 5680 5679 5678 5678 5677 5677 5676 5675 5675 5674 5673 5672 5671 5670 5669 5668 5668 5667 5667 5667 5666 5666 5666 5666 5666 5666 5666 5666 5665
5692 5691 5690 5690 5689 5688 5687 5686 5686 5685 5684 5683 5682 5681 5680 5680 5679 5678 5677 5677 5676 5675 5675 5674 5673 5672 5671 5670 5670 5669 5668 5668 5667 5667 5666 5666 5666 5666 5666 5666 5666 5666 5665
5694 5694 5693 5692 5691 5691 5690 5689 5688 5687 5686 5685 5684 5683 5682 5681 5680 5679 5678 5678 5677 5676 5675 5674 5673 5673 5672 5671 5670 5669 5669 5668 5667 5667 5667 5666 5666 5666 5666 5666 5666 5665 5665
5698 5697 5696 5695 5695 5694 5693 5692 5691 5689 5688 5687 5686 5685 5684 5683 5682 5681 5680 5679 5678 5678 5677 5676 5675 5674 5673 5672 5671 5670 5669 5669 5668 5667 5667 5667 5666 5666 5666 5666 5666 5665 5664
5701 5701 5700 5699 5699 5698 5697 5695 5694 5693 5691 5690 5689 5688 5687 5686 5684 5683 5682 5681 5681 5680 5679 5677 5676 5675 5674 5673 5672 5671 5670 5670 5669 5668 5668 5667 5667 5666 5666 5666 5665 5664 5664
5705 5705 5704 5703 5702 5701 5700 5699 5698 5697 5695 5694 5693 5691 5690 5689 5688 5686 5685 5684 5683 5682 5681 5679 5678 5677 5676 5675 5674 5673 5672 5671 5670 5669 5668 5668 5667 5667 5666 5666 5665 5664 5663
5709 5709 5708 5707 5706 5705 5704 5703 5702 5701 5700 5698 5697 5695 5694 5692 5691 5689 5688 5687 5686 5685 5683 5682 5680 5679 5678 5677 5675 5674 5673 5672 5671 5670 5669 5669 5668 5667 5666 5666 5665 5664 5663
5713 5713 5712 5711 5710 5709 5708 5707 5706 5705 5703 5702 5700 5699 5697 5696 5694 5693 5692 5690 5689 5687 5686 5684 5683 5681 5680 5678 5677 5676 5675 5674 5672 5671 5670 5669 5668 5667 5666 5666 5664 5663 5662
5717 5717 5716 5715 5714 5713 5712 5711 5710 5708 5707 5706 5704 5703 5701 5699 5698 5696 5695 5693 5692 5690 5688 5687 5685 5683 5682 5680 5679 5678 5676 5675 5674 5673 5671 5670 5669 5668 5667 5665 5664 5662 5660
5722 5721 5720 5719 5718 5717 5716 5714 5713 5712 5710 5709 5707 5706 5704 5703 5701 5699 5698 5696 5694 5693 5691 5689 5687 5686 5684 5682 5681 5679 5678 5676 5675 5674 5672 5671 5669 5668 5666 5664 5662 5661 5658